Location: Simi Valley
(34.2690°N, 118.7810°W)
Time: 13:51:45
(UTC-07:00)

SAR-Lupe-1 - Visible Passes

Search period start: 25 June 2017 00:00
Search period end: 05 July 2017 00:00
Orbit: 482 x 485 km, 98.1° (Epoch: 10 June)

Date Brightness Start Highest point End Pass type
(mag) Time Alt. Az. Time Alt. Az. Time Alt. Az.
25 Jun 4.9 21:02:25 13° SE 21:05:10 35° ENE 21:08:28 10° N visible
25 Jun 7.0 22:37:56 10° WSW 22:38:37 10° W 22:39:18 10° W visible
26 Jun 5.9 20:38:27 10° ESE 20:40:47 17° ENE 20:43:08 10° NNE visible
26 Jun 6.1 22:11:58 15° SW 22:13:55 22° W 22:16:49 10° NW visible
27 Jun 4.7 21:47:10 21° S 21:49:19 51° W 21:52:50 10° NNW visible
28 Jun 4.1 21:22:22 19° SSE 21:24:48 65° ENE 21:28:21 10° N visible
29 Jun 5.2 20:57:35 12° SE 21:00:21 28° ENE 21:03:27 10° NNE visible
29 Jun 6.8 22:32:01 10° WSW 22:33:43 13° W 22:35:25 10° WNW visible
30 Jun 5.8 22:07:09 18° SW 22:09:02 27° W 22:12:09 10° NW visible
01 Jul 4.3 21:42:21 23° S 21:44:27 65° W 21:48:01 10° NNW visible
02 Jul 4.3 21:17:33 18° SE 21:19:56 52° ENE 21:23:26 10° N visible
03 Jul 5.5 20:52:46 11° SE 20:55:30 23° ENE 20:58:24 10° NNE visible
03 Jul 6.6 22:27:07 12° SW 22:28:48 16° W 22:31:03 10° WNW visible
04 Jul 5.5 22:02:19 21° SSW 22:04:09 34° W 22:07:27 10° NNW visible
